{"data":{"norad_id":46497,"epoch":"2026-09-20T05:11:45.951648Z","epoch_age_seconds":97825,"freshness":"FRESH","line1":"1 46497U 20068M   26263.21650407  .00001985  00000+0  14492-3 0  9995","line2":"2 46497  98.1050 261.4965 0008152 125.1066 235.0925 15.04926760327520","mean_motion":15.0492676,"eccentricity":0.0008152,"inclination_deg":98.105,"raan_deg":261.4965,"arg_perigee_deg":125.1066,"mean_anomaly_deg":235.0925,"bstar":0.00014492,"rev_number":32752,"period_min":95.685719616016,"perigee_km":546.0812814568,"apogee_km":557.37973744421,"semimajor_km":6929.8675094505,"source":"CELESTRAK","updated_at":"2026-09-20T09:00:14.762092Z"}}